Regional Weather Roundup
Issued by NWS

Home | Current Version | Previous Version | Text Only | Print | Product List | Glossary Off
Versions: 1 2 3 4 5 6 7 8 9 10 11 12 13 14 15 16 17 18 19 20 21 22 23 24 25 26 27 28 29 30 31 32 33 34 35 36 37 38 39 40 41 42 43 44 45 46 47 48 49 50

000
ASUS43 KLSX 261759
RWRMO

WEATHER SUMMARY FOR MISSOURI
NATIONAL WEATHER SERVICE SPRINGFIELD MO
100 PM CDT SAT JUL 26 2014

NOTE: "FAIR" INDICATES FEW OR NO CLOUDS BELOW 12,000 FEET WITH NO
       SIGNIFICANT WEATHER AND/OR OBSTRUCTIONS TO VISIBILITY.
       CURRENT SKY AND/OR WEATHER CONDITIONS ARE NOT AVAILABLE FOR
       CHILLICOTHE AND FARMINGTON.

MOZ001>031-035>038-043-044-053-054-261900-
...NORTHERN AND WESTERN MISSOURI...

CITY           SKY/WX    TMP DP  RH WIND       PRES   REMARKS
KANSAS CTY INT LGT RAIN  81  73  76 SE13      29.81F
6HR MIN TEMP:  76; 6HR MAX TEMP:  85; 6HR PCP: TRACE;

KANSAS C DTWN  CLOUDY    84  69  60 SW9       29.83S
6HR MIN TEMP:  82; 6HR MAX TEMP:  88; 6HR PCP: TRACE;

LEE`S SUMMIT   CLOUDY    81  71  71 SW8       29.86S
6HR MIN TEMP:  78; 6HR MAX TEMP:  83; 6HR PCP: TRACE;

ST JOSEPH      CLOUDY    83  73  72 E3        29.80F
6HR MIN TEMP:  76; 6HR MAX TEMP:  83; 6HR PCP: TRACE;

CHILLICOTHE      N/A     81  71  71 SW6       29.85R
6HR MIN TEMP:  75; 6HR MAX TEMP:  86;

KIRKSVILLE     MOSUNNY   85  74  69 W9        29.87R HX  92
6HR MIN TEMP:  75; 6HR MAX TEMP:  88;


$$
MOZ066>068-077>081-088>096-101>105-261900-
...SOUTHWEST MISSOURI...

CITY           SKY/WX    TMP DP  RH WIND       PRES   REMARKS
SPRINGFIELD    SUNNY     95  68  41 SW18G24   29.94F HX  99
6HR MIN TEMP:  73; 6HR MAX TEMP:  95;

JOPLIN         SUNNY     96  68  39 SW17G29   29.92F HX 101
6HR MIN TEMP:  77; 6HR MAX TEMP:  96;


$$
MOZ032>034-039>042-045>050-055>058-069>072-261900-
...CENTRAL MISSOURI...

CITY           SKY/WX    TMP DP  RH WIND       PRES   REMARKS
COLUMBIA       MOSUNNY   92  69  47 W18       29.86S HX  97
6HR MIN TEMP:  74; 6HR MAX TEMP:  95;

JEFFERSON CITY MOSUNNY   92  70  48 SW13G22   29.84F HX  97
6HR MIN TEMP:  76; 6HR MAX TEMP:  93;

ROLLA          MOSUNNY   95  68  41 SW17G24   29.89S HX  99
6HR MIN TEMP:  73; 6HR MAX TEMP:  95;

SEDALIA        CLOUDY    83  72  69 SW12      29.89R
6HR MIN TEMP:  79; 6HR MAX TEMP:  90; 6HR PCP: TRACE;

OSAGE BEACH    MOSUNNY   95  70  43 SW12G24   29.89S HX 101

$$
MOZ051-052-059>065-261900-
...EAST CENTRAL MISSOURI...

CITY           SKY/WX    TMP DP  RH WIND       PRES   REMARKS
ST LOUIS INTL  PTSUNNY   95  72  47 W13G22    29.85F HX 103
6HR MIN TEMP:  73; 6HR MAX TEMP:  96;

SPIRIT OF STL  MOSUNNY   95  71  45 SW10      29.83F HX 102
6HR MIN TEMP:  74; 6HR MAX TEMP:  95;

ST CHARLES     MOSUNNY   92  73  53 W8        29.83F HX 100
6HR MIN TEMP:  69; 6HR MAX TEMP:  92;


$$
MOZ072>076-082>087-097>100-106>115-261900-
...SOUTH CENTRAL AND SOUTHEAST MISSOURI...

CITY           SKY/WX    TMP DP  RH WIND       PRES   REMARKS
CAPE GIRARDEAU SUNNY     88  76  67 SW9       29.92F HX  99
6HR MIN TEMP:  69; 6HR MAX TEMP:  88;

FARMINGTON     SUNNY     93  73  52 SW13      29.93F HX 102
6HR MIN TEMP:  72; 6HR MAX TEMP:  93;

POPLAR BLUFF   SUNNY     87  75  67 S8        29.92F HX  96
6HR MIN TEMP:  69; 6HR MAX TEMP:  87;

WEST PLAINS    SUNNY     91  72  53 W12G20    29.98F HX  98
6HR MIN TEMP:  71; 6HR MAX TEMP:  91;


$$


USA.gov is the U.S. government's official web portal to all federal, state and local government web resources and services.